Alexandria, Egypt

6:52 AM EET on March 25, 2017 (GMT +0200)
Alexandria

Weather History for 62318 - May, 2013

Change the Weather History Date:

Sunday, May 12, 2013

  Actual Average Record
Temperature  
Mean Temperature 70 °F -  
Max Temperature 77 °F 79 °F - ()
Min Temperature 64 °F 65 °F - ()
Cooling Degree Days 6    
Growing Degree Days 20 (Base 50)    
Moisture  
Dew Point 60 °F    
Average Humidity 69    
Maximum Humidity 83    
Minimum Humidity 56    
Precipitation  
Precipitation 0.00 in 0.00 in - ()
Sea Level Pressure  
Sea Level Pressure 29.88 in    
Wind  
Wind Speed 7 mph ()    
Max Wind Speed 15 mph    
Max Gust Speed -    
Visibility 6.2 miles    
Events      
T = Trace of Precipitation, MM = Missing Value Source: Averaged Metar Reports

Daily Weather History Graph

Daily Weather History Graph

Search for Another Location

Airport or City:

Trip Planner

Search our weather history database for the weather conditions in past years. The results will help you decide how hot, cold, wet, or windy it might be!

Date:

Astronomy

May. 12, 2013 Rise Set
Actual Time 5:06 AM EET 6:46 PM EET
Civil Twilight 4:40 AM EET 7:13 PM EET
Nautical Twilight 4:08 AM EET 7:45 PM EET
Astronomical Twilight 3:35 AM EET 8:18 PM EET
Moon 6:47 AM EET (5/12) 8:56 PM EET (5/12)
Length of Visible Light 14h 33m
Length of Day
13h 40m
Waxing Crescent, 5% of the Moon is Illuminated
May 12
Waxing Crescent
May 18
First Quarter
May 25
Full
May 31
Last Quarter
Jun 8
New

Hourly Weather History & Observations

Time (EET) Temp. Dew Point Humidity Pressure Visibility Wind Dir Wind Speed Gust Speed Precip Events Conditions
12:00 AM 68.0 °F 59.0 °F 73% 29.89 in 6.2 mi NW 6.9 mph - N/A   Partly Cloudy
12:08 AM 68.0 °F 59.0 °F 73% 29.89 in 6.2 mi NW 6.9 mph - N/A   Partly Cloudy
1:00 AM 68.0 °F 59.0 °F 73% 29.86 in 6.2 mi WNW 6.9 mph - N/A   Partly Cloudy
2:00 AM 68 °F 59 °F 66% 29.87 in 6 mi WNW 6.9 mph - -   Scattered Clouds
2:00 AM 68.0 °F 59.0 °F 73% 29.86 in 6.2 mi WNW 6.9 mph - N/A   Partly Cloudy
3:00 AM 68.0 °F 59.0 °F 73% 29.86 in 6.2 mi WNW 6.9 mph - N/A   Partly Cloudy
4:00 AM 68.0 °F 59.0 °F 73% 29.86 in 6.2 mi NW 6.9 mph - N/A   Partly Cloudy
5:00 AM 66.2 °F 59.0 °F 78% 29.86 in 6.2 mi West 5.8 mph - N/A   Partly Cloudy
6:00 AM 68.0 °F 59.0 °F 73% 29.86 in 6.2 mi West 3.5 mph - N/A   Scattered Clouds
7:00 AM 69.8 °F 60.8 °F 73% 29.86 in 6.2 mi West 9.2 mph - N/A   Scattered Clouds
8:00 AM 72 °F 60 °F 58% 29.89 in 6 mi West 9.2 mph - -   Mostly Cloudy
8:00 AM 71.6 °F 60.8 °F 69% 29.89 in 6.2 mi West 9.2 mph - N/A   Scattered Clouds
9:00 AM 71.6 °F 60.8 °F 69% 29.89 in 6.2 mi West 11.5 mph - N/A   Scattered Clouds
10:00 AM 73.4 °F 62.6 °F 69% 29.89 in 6.2 mi West 11.5 mph - N/A   Scattered Clouds
11:00 AM 73.4 °F 60.8 °F 65% 29.92 in 6.2 mi West 15.0 mph - N/A   Scattered Clouds
12:00 PM 75.2 °F 60.8 °F 61% 29.89 in 6.2 mi West 15.0 mph - N/A   Scattered Clouds
1:00 PM 77.0 °F 62.6 °F 61% 29.89 in 6.2 mi West 12.7 mph - N/A   Scattered Clouds
2:00 PM 74 °F 62 °F 56% 29.91 in 6 mi NW 13.8 mph - -   Partly Cloudy
2:00 PM 75.2 °F 60.8 °F 61% 29.89 in 6.2 mi NW 13.8 mph - N/A   Scattered Clouds
3:00 PM 73.4 °F 60.8 °F 65% 29.89 in 6.2 mi WNW 9.2 mph - N/A   Scattered Clouds
4:00 PM 77.0 °F 62.6 °F 61% 29.89 in - NW 9.2 mph - N/A   Clear
5:00 PM 75.2 °F 60.8 °F 61% 29.86 in - WNW 9.2 mph - N/A   Clear
6:00 PM 73.4 °F 62.6 °F 69% 29.86 in - NNW 6.9 mph - N/A   Clear
7:00 PM 71.6 °F 62.6 °F 73% 29.86 in - North 2.3 mph - N/A   Clear
8:00 PM 70 °F 60 °F 62% 29.89 in 6 mi Calm Calm - -  
8:00 PM 69.8 °F 59.0 °F 68% 29.89 in - Calm Calm - N/A   Clear
9:00 PM 66.2 °F 60.8 °F 83% 29.89 in - ESE 2.3 mph - N/A   Clear
10:00 PM 64.4 °F 59.0 °F 83% 29.89 in - SW 2.3 mph - N/A   Clear
11:00 PM 64.4 °F 59.0 °F 83% 29.86 in - SE 3.5 mph - N/A   Clear